TimeEST,TemperatureF,Dew PointF,Humidity,Sea Level PressureIn,VisibilityMPH,Wind Direction,Wind SpeedMPH,Gust SpeedMPH,PrecipitationIn,Events,Conditions,WindDirDegrees,DateUTC
12:54 AM,17.1,10.0,74,30.16,10.0,ENE,3.5,-,N/A,,Overcast,70,2013-01-06 05:54:00
1:54 AM,16.0,10.0,77,30.14,10.0,Calm,Calm,-,N/A,,Partly Cloudy,0,2013-01-06 06:54:00
2:54 AM,17.1,10.9,77,30.11,10.0,Calm,Calm,-,N/A,,Overcast,0,2013-01-06 07:54:00
3:54 AM,19.9,12.9,74,30.06,10.0,ESE,3.5,-,N/A,,Overcast,110,2013-01-06 08:54:00
4:54 AM,19.9,12.9,74,30.03,10.0,Calm,Calm,-,N/A,,Overcast,0,2013-01-06 09:54:00
5:48 AM,23.0,17.6,80,29.99,2.5,South,8.1,-,0.00,Snow,Light Snow,170,2013-01-06 10:48:00
5:54 AM,23.0,18.0,81,30.01,2.5,South,8.1,-,0.00,Snow,Light Snow,170,2013-01-06 10:54:00
6:04 AM,24.8,19.4,80,29.99,4.0,South,9.2,-,0.00,Snow,Light Snow,180,2013-01-06 11:04:00
6:26 AM,24.8,19.4,80,29.99,4.0,South,10.4,-,0.00,Snow,Light Snow,170,2013-01-06 11:26:00
6:54 AM,25.0,19.9,81,30.01,3.0,South,12.7,-,0.00,Snow,Light Snow,180,2013-01-06 11:54:00
7:54 AM,25.0,19.9,81,29.99,10.0,South,11.5,-,0.00,,Mostly Cloudy,190,2013-01-06 12:54:00
8:54 AM,27.0,21.9,81,29.99,10.0,SSW,11.5,-,N/A,,Mostly Cloudy,200,2013-01-06 13:54:00
9:54 AM,28.9,23.0,78,29.97,10.0,South,12.7,-,0.00,,Mostly Cloudy,190,2013-01-06 14:54:00
10:54 AM,30.0,23.0,75,29.95,10.0,South,12.7,-,0.00,,Scattered Clouds,190,2013-01-06 15:54:00
11:54 AM,30.9,23.0,72,29.93,10.0,South,10.4,-,N/A,,Mostly Cloudy,190,2013-01-06 16:54:00
12:54 PM,32.0,24.8,75,29.88,9.0,South,10.4,-,N/A,Snow,Light Snow,190,2013-01-06 17:54:00
1:54 PM,33.1,25.0,72,29.89,8.0,South,8.1,-,0.00,Snow,Light Snow,180,2013-01-06 18:54:00
2:54 PM,34.0,25.0,70,29.88,10.0,South,8.1,-,0.00,,Mostly Cloudy,190,2013-01-06 19:54:00
3:54 PM,34.0,25.0,70,29.89,6.0,South,6.9,-,0.00,Snow,Light Snow,190,2013-01-06 20:54:00
4:54 PM,34.0,26.1,73,29.89,10.0,South,6.9,-,0.00,,Overcast,190,2013-01-06 21:54:00
5:54 PM,34.0,26.1,73,29.90,10.0,South,8.1,-,N/A,,Overcast,190,2013-01-06 22:54:00
6:42 PM,33.8,26.6,75,29.89,7.0,South,11.5,-,0.00,Snow,Light Snow,190,2013-01-06 23:42:00
6:54 PM,33.1,27.0,78,29.91,3.0,South,9.2,-,0.00,Snow,Light Snow,190,2013-01-06 23:54:00
7:14 PM,33.8,26.6,75,29.89,7.0,South,8.1,-,0.00,,Overcast,180,2013-01-07 00:14:00
7:42 PM,33.8,26.6,75,29.90,4.0,SW,4.6,-,0.00,Snow,Light Snow,230,2013-01-07 00:42:00
7:54 PM,33.1,27.0,78,29.92,4.0,WNW,6.9,-,0.00,Snow,Light Snow,300,2013-01-07 00:54:00
8:39 PM,26.6,21.2,80,29.91,1.8,NW,12.7,-,0.00,Snow,Light Snow,320,2013-01-07 01:39:00
8:54 PM,24.1,21.0,88,29.94,1.0,NW,12.7,-,0.00,Snow,Light Snow,310,2013-01-07 01:54:00
9:19 PM,23.0,19.4,86,29.93,1.8,NW,10.4,-,0.01,Snow,Light Snow,310,2013-01-07 02:19:00
9:29 PM,21.2,19.4,93,29.93,2.0,NW,10.4,-,0.01,Snow,Light Snow,310,2013-01-07 02:29:00
9:38 PM,21.2,19.4,93,29.94,3.0,NW,10.4,-,0.01,Snow,Light Snow,310,2013-01-07 02:38:00
9:54 PM,21.9,18.0,85,29.96,5.0,NW,10.4,-,0.01,,Overcast,320,2013-01-07 02:54:00
10:13 PM,21.2,17.6,86,29.95,4.0,NW,9.2,-,N/A,Snow,Light Snow,320,2013-01-07 03:13:00
10:54 PM,21.0,17.1,85,29.99,2.0,North,9.2,-,0.00,Snow,Light Snow,350,2013-01-07 03:54:00
11:54 PM,19.9,15.1,81,30.01,4.0,North,9.2,-,0.01,Snow,Light Snow,350,2013-01-07 04:54:00